Simultaneous Nadir Overpasses (SNOs) Predictions

Prediction of SNOs between GOES-15 and LANDSAT-8 Satellite Orbit:

Table of predicted SNOs for the next 14.0 days since TLE Epoch: 2/10/2024
Index Date Time (GOES-15) GOES-15 Lat,Lon LANDSAT-8 Lat,Lon Distance(km) Time Diff (sec)
1 02/10/2024 18:08:29 -0.01, 61.50 -0.04, 61.30 23.10 80
2 02/12/2024 17:53:37 -0.01, 61.48 0.59, 64.25 315.72 80
3 02/13/2024 06:14:51 0.01, 61.50 0.54, 59.10 273.12 80
4 02/15/2024 06:05:20 0.01, 61.48 -0.11, 62.06 65.52 80
5 02/17/2024 05:53:07 0.00, 61.46 -0.73, 65.02 403.62 80
6 02/17/2024 18:14:30 -0.00, 61.43 -0.36, 59.82 182.49 80
7 02/19/2024 17:59:37 0.00, 61.42 0.29, 62.78 155.16 80
8 02/20/2024 06:20:52 0.00, 61.46 0.82, 57.63 435.35 80
9 02/21/2024 17:47:24 -0.00, 61.41 0.89, 65.75 492.89 80
10 02/22/2024 06:08:38 0.00, 61.45 0.21, 60.60 97.44 80
